HISTORICAL SENSOR DATA

Sensor Data Report

DB LIVE
CURRENT TIME--:--:--
DEVICE NETWORK Gateway Status
13 ESP · realtime ~1s · history 60s
Weather WS-MOD-01
ONLINE
Actuator ACT-MOD-01
OFFLINE
Mainboard L3 MB-L3-01
ONLINE
Mainboard L5 MB-L5-01
ONLINE
Remote AC AC-REMOTE-01
ONLINE
PZEM L3-01 PWR-L3-01
OFFLINE
PZEM L3-02 PWR-L3-02
OFFLINE
PZEM L3-03 PWR-L3-03
OFFLINE
PZEM L3-04 PWR-L3-04
OFFLINE
PZEM L5-01 PWR-L5-01
ONLINE
PZEM L5-02 PWR-L5-02
ONLINE
PZEM L5-03 PWR-L5-03
OFFLINE
PZEM L5-04 PWR-L5-04
OFFLINE
REPORT FILTER

Periode & Sensor

DATABASE HISTORY
RESET
QUICK RANGE Hari ini 7 hari 30 hari
PERIODE04 Aug 2026sampai 02 Sep 2026
TOTAL DATA40,278sensor readings
MINIMUM-0.50sesuai filter
AVERAGE56.78sesuai filter
MAXIMUM998.00sesuai filter
REPORT RESULT

Data Sensor

04/08/2026 — 02/09/2026 EXPORT CSV
NOTANGGALWAKTUDEVICECHANNELSENSORVALUEUNIT
12401 02/09/2026 14:54:23 MB-L3-01Mainboard Lantai 3 L3-RAD-02 Radiation 2 2.00 W/m²
12402 02/09/2026 14:54:23 MB-L5-01Mainboard Lantai 5 L5-AI-06 Analog Input 6 3.05 V
12403 02/09/2026 14:54:23 MB-L3-01Mainboard Lantai 3 L3-LUX-03 Illuminance / LUX 3 205.80 lux
12404 02/09/2026 14:54:23 MB-L5-01Mainboard Lantai 5 L5-SHT-02-RH SHT20 2 Humidity 48.30 %RH
12405 02/09/2026 14:54:23 MB-L3-01Mainboard Lantai 3 L3-AI-04 Analog Input 4 3.12 V
12406 02/09/2026 14:54:23 MB-L5-01Mainboard Lantai 5 L5-LUX-04 Illuminance / LUX 4 326.80 lux
12407 02/09/2026 14:54:23 MB-L3-01Mainboard Lantai 3 L3-BGT-02 Black Globe Temperature 2 29.90 °C
12408 02/09/2026 14:54:23 MB-L3-01Mainboard Lantai 3 L3-RAD-01 Radiation 1 2.00 W/m²
12409 02/09/2026 14:54:23 MB-L5-01Mainboard Lantai 5 L5-AI-05 Analog Input 5 3.05 V
12410 02/09/2026 14:54:23 MB-L5-01Mainboard Lantai 5 L5-SHT-03-T SHT20 3 Temperature 32.20 °C
12411 02/09/2026 14:54:23 MB-L5-01Mainboard Lantai 5 L5-SHT-01-T SHT20 1 Temperature 32.30 °C
12412 02/09/2026 14:54:23 MB-L3-01Mainboard Lantai 3 L3-SHT-03-RH SHT20 3 Humidity 49.00 %RH
12413 02/09/2026 14:54:23 MB-L5-01Mainboard Lantai 5 L5-SHT-02-T SHT20 2 Temperature 32.20 °C
12414 02/09/2026 14:54:23 MB-L5-01Mainboard Lantai 5 L5-SHT-03-RH SHT20 3 Humidity 48.70 %RH
12415 02/09/2026 14:54:23 MB-L5-01Mainboard Lantai 5 L5-AI-04 Analog Input 4 3.05 V
12416 02/09/2026 14:54:23 MB-L3-01Mainboard Lantai 3 L3-ST-01 Surface Temperature 1 30.00 °C
12417 02/09/2026 14:54:23 MB-L3-01Mainboard Lantai 3 L3-LUX-05 Illuminance / LUX 5 79.50 lux
12418 02/09/2026 14:54:23 MB-L3-01Mainboard Lantai 3 L3-AI-05 Analog Input 5 3.12 V
12419 02/09/2026 14:54:23 MB-L3-01Mainboard Lantai 3 L3-SHT-03-T SHT20 3 Temperature 31.80 °C
12420 02/09/2026 14:54:23 MB-L5-01Mainboard Lantai 5 L5-RAD-01 Radiation 1 2.00 W/m²
12421 02/09/2026 14:54:23 MB-L5-01Mainboard Lantai 5 L5-AI-03 Analog Input 3 3.05 V
12422 02/09/2026 14:54:23 MB-L3-01Mainboard Lantai 3 L3-SHT-02-T SHT20 2 Temperature 32.10 °C
12423 02/09/2026 14:54:23 MB-L5-01Mainboard Lantai 5 L5-AI-02 Analog Input 2 3.05 V
12424 02/09/2026 14:54:23 MB-L3-01Mainboard Lantai 3 L3-BGT-03 Black Globe Temperature 3 29.40 °C
12425 02/09/2026 14:54:23 MB-L5-01Mainboard Lantai 5 L5-AI-01 Analog Input 1 3.05 V
12426 02/09/2026 14:54:23 MB-L3-01Mainboard Lantai 3 L3-ST-02 Surface Temperature 2 30.20 °C
12427 02/09/2026 14:54:23 MB-L3-01Mainboard Lantai 3 L3-AI-06 Analog Input 6 3.12 V
12428 02/09/2026 14:54:23 MB-L3-01Mainboard Lantai 3 L3-LUX-06 Illuminance / LUX 6 54.90 lux
12429 02/09/2026 14:54:23 MB-L3-01Mainboard Lantai 3 L3-AI-01 Analog Input 1 3.12 V
12430 02/09/2026 14:54:23 MB-L5-01Mainboard Lantai 5 L5-BGT-03 Black Globe Temperature 3 30.10 °C
12431 02/09/2026 14:54:23 MB-L3-01Mainboard Lantai 3 L3-HFT-01 Heat Flow Temperature 1 29.80 °C
12432 02/09/2026 14:54:23 MB-L5-01Mainboard Lantai 5 L5-LUX-03 Illuminance / LUX 3 228.80 lux
12433 02/09/2026 14:54:23 MB-L5-01Mainboard Lantai 5 L5-BGT-02 Black Globe Temperature 2 29.90 °C
12434 02/09/2026 14:54:23 MB-L5-01Mainboard Lantai 5 L5-LUX-05 Illuminance / LUX 5 623.90 lux
12435 02/09/2026 14:54:23 MB-L5-01Mainboard Lantai 5 L5-BGT-01 Black Globe Temperature 1 29.90 °C
12436 02/09/2026 14:54:23 MB-L3-01Mainboard Lantai 3 L3-AI-02 Analog Input 2 3.12 V
12437 02/09/2026 14:54:23 MB-L3-01Mainboard Lantai 3 L3-LUX-04 Illuminance / LUX 4 146.20 lux
12438 02/09/2026 14:54:23 MB-L5-01Mainboard Lantai 5 L5-HFT-02 Heat Flow Temperature 2 30.20 °C
12439 02/09/2026 14:54:23 MB-L5-01Mainboard Lantai 5 L5-SHT-01-RH SHT20 1 Humidity 48.30 %RH
12440 02/09/2026 14:54:23 MB-L3-01Mainboard Lantai 3 L3-HFT-02 Heat Flow Temperature 2 29.20 °C
12441 02/09/2026 14:54:23 MB-L3-01Mainboard Lantai 3 L3-SHT-01-T SHT20 1 Temperature 32.00 °C
12442 02/09/2026 14:54:23 MB-L5-01Mainboard Lantai 5 L5-HFT-01 Heat Flow Temperature 1 30.40 °C
12443 02/09/2026 14:54:23 MB-L5-01Mainboard Lantai 5 L5-LUX-01 Illuminance / LUX 1 276.80 lux
12444 02/09/2026 14:54:23 MB-L5-01Mainboard Lantai 5 L5-LUX-06 Illuminance / LUX 6 332.40 lux
12445 02/09/2026 14:54:23 MB-L5-01Mainboard Lantai 5 L5-ST-02 Surface Temperature 2 30.60 °C
12446 02/09/2026 14:54:23 MB-L3-01Mainboard Lantai 3 L3-LUX-02 Illuminance / LUX 2 92.30 lux
12447 02/09/2026 14:54:23 MB-L3-01Mainboard Lantai 3 L3-SHT-01-RH SHT20 1 Humidity 48.40 %RH
12448 02/09/2026 14:54:23 MB-L3-01Mainboard Lantai 3 L3-AI-03 Analog Input 3 3.12 V
12449 02/09/2026 14:54:23 MB-L5-01Mainboard Lantai 5 L5-LUX-02 Illuminance / LUX 2 197.80 lux
12450 02/09/2026 14:54:23 MB-L5-01Mainboard Lantai 5 L5-ST-01 Surface Temperature 1 30.40 °C
12451 02/09/2026 14:54:23 MB-L3-01Mainboard Lantai 3 L3-SHT-02-RH SHT20 2 Humidity 48.40 %RH
12452 02/09/2026 14:54:23 MB-L3-01Mainboard Lantai 3 L3-BGT-01 Black Globe Temperature 1 29.80 °C
12453 02/09/2026 14:54:21 MB-L5-01Mainboard Lantai 5 L5-SHT-02-T SHT20 2 Temperature 32.20 °C
12454 02/09/2026 14:54:21 MB-L5-01Mainboard Lantai 5 L5-SHT-03-RH SHT20 3 Humidity 48.80 %RH
12455 02/09/2026 14:54:21 MB-L5-01Mainboard Lantai 5 L5-AI-04 Analog Input 4 3.05 V
12456 02/09/2026 14:54:21 MB-L3-01Mainboard Lantai 3 L3-ST-01 Surface Temperature 1 29.90 °C
12457 02/09/2026 14:54:21 MB-L3-01Mainboard Lantai 3 L3-AI-05 Analog Input 5 3.12 V
12458 02/09/2026 14:54:21 MB-L3-01Mainboard Lantai 3 L3-SHT-03-T SHT20 3 Temperature 31.70 °C
12459 02/09/2026 14:54:21 MB-L5-01Mainboard Lantai 5 L5-RAD-01 Radiation 1 2.00 W/m²
12460 02/09/2026 14:54:21 MB-L5-01Mainboard Lantai 5 L5-AI-03 Analog Input 3 3.05 V
12461 02/09/2026 14:54:21 MB-L3-01Mainboard Lantai 3 L3-SHT-02-T SHT20 2 Temperature 32.10 °C
12462 02/09/2026 14:54:21 MB-L5-01Mainboard Lantai 5 L5-AI-02 Analog Input 2 3.05 V
12463 02/09/2026 14:54:21 MB-L3-01Mainboard Lantai 3 L3-BGT-03 Black Globe Temperature 3 29.40 °C
12464 02/09/2026 14:54:21 MB-L5-01Mainboard Lantai 5 L5-AI-01 Analog Input 1 3.05 V
12465 02/09/2026 14:54:21 MB-L3-01Mainboard Lantai 3 L3-ST-02 Surface Temperature 2 30.20 °C
12466 02/09/2026 14:54:21 MB-L3-01Mainboard Lantai 3 L3-AI-06 Analog Input 6 3.12 V
12467 02/09/2026 14:54:21 MB-L3-01Mainboard Lantai 3 L3-LUX-06 Illuminance / LUX 6 58.30 lux
12468 02/09/2026 14:54:21 MB-L3-01Mainboard Lantai 3 L3-AI-01 Analog Input 1 3.12 V
12469 02/09/2026 14:54:21 MB-L5-01Mainboard Lantai 5 L5-BGT-03 Black Globe Temperature 3 30.10 °C
12470 02/09/2026 14:54:21 MB-L3-01Mainboard Lantai 3 L3-HFT-01 Heat Flow Temperature 1 29.60 °C
12471 02/09/2026 14:54:21 MB-L5-01Mainboard Lantai 5 L5-LUX-03 Illuminance / LUX 3 233.90 lux
12472 02/09/2026 14:54:21 MB-L5-01Mainboard Lantai 5 L5-BGT-02 Black Globe Temperature 2 30.00 °C
12473 02/09/2026 14:54:21 MB-L5-01Mainboard Lantai 5 L5-LUX-05 Illuminance / LUX 5 617.20 lux
12474 02/09/2026 14:54:21 MB-L5-01Mainboard Lantai 5 L5-BGT-01 Black Globe Temperature 1 30.00 °C
12475 02/09/2026 14:54:21 MB-L3-01Mainboard Lantai 3 L3-AI-02 Analog Input 2 3.12 V
12476 02/09/2026 14:54:21 MB-L3-01Mainboard Lantai 3 L3-LUX-04 Illuminance / LUX 4 131.30 lux
12477 02/09/2026 14:54:21 MB-L5-01Mainboard Lantai 5 L5-HFT-02 Heat Flow Temperature 2 30.40 °C
12478 02/09/2026 14:54:21 MB-L5-01Mainboard Lantai 5 L5-SHT-01-RH SHT20 1 Humidity 48.40 %RH
12479 02/09/2026 14:54:21 MB-L3-01Mainboard Lantai 3 L3-HFT-02 Heat Flow Temperature 2 29.10 °C
12480 02/09/2026 14:54:21 MB-L3-01Mainboard Lantai 3 L3-SHT-01-T SHT20 1 Temperature 32.20 °C
12481 02/09/2026 14:54:21 MB-L5-01Mainboard Lantai 5 L5-HFT-01 Heat Flow Temperature 1 30.50 °C
12482 02/09/2026 14:54:21 MB-L5-01Mainboard Lantai 5 L5-LUX-01 Illuminance / LUX 1 282.30 lux
12483 02/09/2026 14:54:21 MB-L5-01Mainboard Lantai 5 L5-LUX-06 Illuminance / LUX 6 339.90 lux
12484 02/09/2026 14:54:21 MB-L5-01Mainboard Lantai 5 L5-ST-02 Surface Temperature 2 30.70 °C
12485 02/09/2026 14:54:21 MB-L3-01Mainboard Lantai 3 L3-LUX-02 Illuminance / LUX 2 96.10 lux
12486 02/09/2026 14:54:21 MB-L3-01Mainboard Lantai 3 L3-SHT-01-RH SHT20 1 Humidity 48.40 %RH
12487 02/09/2026 14:54:21 MB-L3-01Mainboard Lantai 3 L3-AI-03 Analog Input 3 3.12 V
12488 02/09/2026 14:54:21 MB-L5-01Mainboard Lantai 5 L5-LUX-02 Illuminance / LUX 2 235.20 lux
12489 02/09/2026 14:54:21 MB-L5-01Mainboard Lantai 5 L5-ST-01 Surface Temperature 1 30.40 °C
12490 02/09/2026 14:54:21 MB-L3-01Mainboard Lantai 3 L3-SHT-02-RH SHT20 2 Humidity 48.40 %RH
12491 02/09/2026 14:54:21 MB-L3-01Mainboard Lantai 3 L3-BGT-01 Black Globe Temperature 1 29.90 °C
12492 02/09/2026 14:54:21 MB-L5-01Mainboard Lantai 5 L5-RAD-02 Radiation 2 2.00 W/m²
12493 02/09/2026 14:54:21 MB-L3-01Mainboard Lantai 3 L3-LUX-01 Illuminance / LUX 1 55.50 lux
12494 02/09/2026 14:54:21 MB-L3-01Mainboard Lantai 3 L3-RAD-02 Radiation 2 2.00 W/m²
12495 02/09/2026 14:54:21 MB-L5-01Mainboard Lantai 5 L5-AI-06 Analog Input 6 3.05 V
12496 02/09/2026 14:54:21 MB-L3-01Mainboard Lantai 3 L3-LUX-03 Illuminance / LUX 3 227.20 lux
12497 02/09/2026 14:54:21 MB-L5-01Mainboard Lantai 5 L5-SHT-02-RH SHT20 2 Humidity 48.30 %RH
12498 02/09/2026 14:54:21 MB-L3-01Mainboard Lantai 3 L3-AI-04 Analog Input 4 3.12 V
12499 02/09/2026 14:54:21 MB-L5-01Mainboard Lantai 5 L5-LUX-04 Illuminance / LUX 4 324.50 lux
12500 02/09/2026 14:54:21 MB-L3-01Mainboard Lantai 3 L3-BGT-02 Black Globe Temperature 2 29.90 °C
Menampilkan maksimal 100 data per halaman